Time,TemperatureF,DewpointF,PressureIn,WindDirection,WindDirectionDegrees,WindSpeedMPH,WindSpeedGustMPH,Humidity,HourlyPrecipIn,Conditions,Clouds,dailyrainin,SoftwareType,DateUTC
2013-03-21 00:00:00,37.9,30.4,30.00,NW,310,0.0,1.0,74,0.00,,---,0.00,VWS V14.00,2013-03-21 04:00:00,
2013-03-21 00:05:00,37.7,30.2,30.00,NW,310,0.0,0.0,74,0.00,,---,0.00,VWS V14.00,2013-03-21 04:05:00,
2013-03-21 00:10:00,37.5,30.0,30.00,NW,310,0.0,0.0,74,0.00,,---,0.00,VWS V14.00,2013-03-21 04:10:00,
2013-03-21 00:15:00,37.4,30.2,30.00,NW,310,0.0,0.0,75,0.00,,---,0.00,VWS V14.00,2013-03-21 04:15:00,
2013-03-21 00:20:00,37.3,30.1,30.00,NW,310,0.0,0.0,75,0.00,,---,0.00,VWS V14.00,2013-03-21 04:20:00,
2013-03-21 00:25:00,37.1,30.6,30.00,NW,310,0.0,0.0,77,0.00,,---,0.00,VWS V14.00,2013-03-21 04:25:00,
2013-03-21 00:30:00,37.0,30.8,30.00,NW,310,0.0,0.0,78,0.00,,---,0.00,VWS V14.00,2013-03-21 04:30:00,
2013-03-21 00:35:00,36.6,30.4,30.00,NW,310,0.0,0.0,78,0.00,,---,0.00,VWS V14.00,2013-03-21 04:35:00,
2013-03-21 00:40:00,36.4,30.5,30.00,NW,310,0.0,0.0,79,0.00,,---,0.00,VWS V14.00,2013-03-21 04:40:00,
2013-03-21 00:45:00,36.1,30.2,30.00,NW,310,0.0,0.0,79,0.00,,---,0.00,VWS V14.00,2013-03-21 04:45:00,
2013-03-21 00:50:00,35.8,30.2,30.00,NW,310,0.0,0.0,80,0.00,,---,0.00,VWS V14.00,2013-03-21 04:50:00,
2013-03-21 00:55:00,35.7,30.5,30.00,NW,310,0.0,1.0,81,0.00,,---,0.00,VWS V14.00,2013-03-21 04:55:00,
2013-03-21 01:00:00,35.7,30.5,30.00,NW,310,0.0,1.0,81,0.00,,---,0.00,VWS V14.00,2013-03-21 05:00:00,
2013-03-21 01:05:00,35.7,30.5,30.00,NW,310,0.0,1.0,81,0.00,,---,0.00,VWS V14.00,2013-03-21 05:05:00,
2013-03-21 01:10:00,35.8,30.5,30.00,NW,310,0.0,1.0,81,0.00,,---,0.00,VWS V14.00,2013-03-21 05:10:00,
2013-03-21 01:15:00,35.7,30.1,29.99,NW,310,0.0,1.0,80,0.00,,---,0.00,VWS V14.00,2013-03-21 05:15:00,
2013-03-21 01:20:00,35.8,30.2,29.99,NW,310,0.0,1.0,80,0.00,,---,0.00,VWS V14.00,2013-03-21 05:20:00,
2013-03-21 01:25:00,35.9,30.3,29.99,WNW,297,0.0,3.0,80,0.00,,---,0.00,VWS V14.00,2013-03-21 05:25:00,
2013-03-21 01:30:00,36.0,30.4,29.99,WNW,297,0.0,3.0,80,0.00,,---,0.00,VWS V14.00,2013-03-21 05:30:00,
2013-03-21 01:35:00,36.0,30.1,29.99,WNW,297,0.0,0.0,79,0.00,,---,0.00,VWS V14.00,2013-03-21 05:35:00,
2013-03-21 01:40:00,35.9,30.0,29.99,WNW,297,0.0,1.0,79,0.00,,---,0.00,VWS V14.00,2013-03-21 05:40:00,
2013-03-21 01:45:00,35.8,29.9,29.99,WNW,297,0.0,1.0,79,0.00,,---,0.00,VWS V14.00,2013-03-21 05:45:00,
2013-03-21 01:50:00,35.7,29.8,30.00,NW,317,2.0,2.0,79,0.00,,---,0.00,VWS V14.00,2013-03-21 05:50:00,
2013-03-21 01:55:00,35.6,30.0,29.99,NNW,333,0.0,2.0,80,0.00,,---,0.00,VWS V14.00,2013-03-21 05:55:00,
2013-03-21 02:00:00,35.5,30.0,29.99,NNW,333,0.0,2.0,80,0.00,,---,0.00,VWS V14.00,2013-03-21 06:00:00,
2013-03-21 02:05:00,35.5,30.0,29.99,NNW,333,0.0,1.0,80,0.00,,---,0.00,VWS V14.00,2013-03-21 06:05:00,
2013-03-21 02:10:00,35.3,29.5,29.99,North,360,0.0,3.0,79,0.00,,---,0.00,VWS V14.00,2013-03-21 06:10:00,
2013-03-21 02:15:00,35.2,29.4,29.99,North,360,0.0,2.0,79,0.00,,---,0.00,VWS V14.00,2013-03-21 06:15:00,
2013-03-21 02:20:00,35.0,28.5,29.99,North,360,0.0,2.0,77,0.00,,---,0.00,VWS V14.00,2013-03-21 06:20:00,
2013-03-21 02:25:00,34.8,28.0,29.99,NNE,25,0.0,2.0,76,0.00,,---,0.00,VWS V14.00,2013-03-21 06:25:00,
2013-03-21 02:30:00,34.7,27.9,29.99,NE,43,0.0,5.0,76,0.00,,---,0.00,VWS V14.00,2013-03-21 06:30:00,
2013-03-21 02:35:00,34.5,27.7,29.99,NE,43,0.0,0.0,76,0.00,,---,0.00,VWS V14.00,2013-03-21 06:35:00,
2013-03-21 02:40:00,34.3,27.5,29.99,NE,43,0.0,1.0,76,0.00,,---,0.00,VWS V14.00,2013-03-21 06:40:00,
2013-03-21 02:45:00,34.1,27.3,29.99,NNW,340,0.0,4.0,76,0.00,,---,0.00,VWS V14.00,2013-03-21 06:45:00,
2013-03-21 02:50:00,33.8,27.0,29.99,NNE,29,1.0,4.0,76,0.00,,---,0.00,VWS V14.00,2013-03-21 06:50:00,
2013-03-21 02:55:00,33.6,26.5,29.99,NNE,15,0.0,4.0,75,0.00,,---,0.00,VWS V14.00,2013-03-21 06:55:00,
2013-03-21 03:00:00,33.4,26.7,29.99,NNE,15,0.0,4.0,76,0.00,,---,0.00,VWS V14.00,2013-03-21 07:00:00,
2013-03-21 03:05:00,33.2,25.8,29.99,NNE,19,0.0,2.0,74,0.00,,---,0.00,VWS V14.00,2013-03-21 07:05:00,
2013-03-21 03:10:00,32.9,25.5,29.99,NNE,20,0.0,2.0,74,0.00,,---,0.00,VWS V14.00,2013-03-21 07:10:00,
2013-03-21 03:15:00,32.7,25.7,29.99,NE,44,0.0,2.0,75,0.00,,---,0.00,VWS V14.00,2013-03-21 07:15:00,
2013-03-21 03:20:00,32.5,25.5,29.99,NNE,28,1.0,2.0,75,0.00,,---,0.00,VWS V14.00,2013-03-21 07:20:00,
2013-03-21 03:25:00,32.4,25.0,29.99,NE,53,0.0,2.0,74,0.00,,---,0.00,VWS V14.00,2013-03-21 07:25:00,
2013-03-21 03:30:00,32.3,25.0,29.99,North,355,0.0,3.0,74,0.00,,---,0.00,VWS V14.00,2013-03-21 07:30:00,
2013-03-21 03:35:00,32.1,24.1,29.99,North,5,0.0,6.0,72,0.00,,---,0.00,VWS V14.00,2013-03-21 07:35:00,
2013-03-21 03:40:00,32.1,23.4,30.00,North,355,0.0,6.0,70,0.00,,---,0.00,VWS V14.00,2013-03-21 07:40:00,
2013-03-21 03:45:00,32.0,23.3,30.00,WNW,290,0.0,5.0,70,0.00,,---,0.00,VWS V14.00,2013-03-21 07:45:00,
2013-03-21 03:50:00,31.9,23.2,30.00,WNW,290,0.0,5.0,70,0.00,,---,0.00,VWS V14.00,2013-03-21 07:50:00,
2013-03-21 03:55:00,31.8,22.8,30.00,NE,44,0.0,4.0,69,0.00,,---,0.00,VWS V14.00,2013-03-21 07:55:00,
2013-03-21 04:00:00,31.6,22.3,30.00,NE,44,3.0,5.0,68,0.00,,---,0.00,VWS V14.00,2013-03-21 08:00:00,
2013-03-21 04:05:00,31.5,22.2,30.00,ESE,119,0.0,5.0,68,0.00,,---,0.00,VWS V14.00,2013-03-21 08:05:00,
2013-03-21 04:10:00,31.4,21.7,30.00,NW,310,0.0,5.0,67,0.00,,---,0.00,VWS V14.00,2013-03-21 08:10:00,
2013-03-21 04:15:00,31.2,21.5,30.00,NE,45,0.0,5.0,67,0.00,,---,0.00,VWS V14.00,2013-03-21 08:15:00,
2013-03-21 04:20:00,31.1,21.8,30.00,North,349,1.0,5.0,68,0.00,,---,0.00,VWS V14.00,2013-03-21 08:20:00,
2013-03-21 04:25:00,30.9,23.0,30.00,North,349,0.0,2.0,72,0.00,,---,0.00,VWS V14.00,2013-03-21 08:25:00,
2013-03-21 04:30:00,30.7,21.1,29.99,NW,307,1.0,6.0,67,0.00,,---,0.00,VWS V14.00,2013-03-21 08:30:00,
2013-03-21 04:35:00,30.5,20.9,29.99,NNW,328,4.0,6.0,67,0.00,,---,0.00,VWS V14.00,2013-03-21 08:35:00,
2013-03-21 04:40:00,30.3,20.3,29.99,WNW,297,0.0,6.0,66,0.00,,---,0.00,VWS V14.00,2013-03-21 08:40:00,
2013-03-21 04:45:00,30.2,19.9,29.99,NW,323,0.0,5.0,65,0.00,,---,0.00,VWS V14.00,2013-03-21 08:45:00,
2013-03-21 04:50:00,30.1,20.1,29.99,NNW,330,0.0,5.0,66,0.00,,---,0.00,VWS V14.00,2013-03-21 08:50:00,
2013-03-21 04:55:00,30.0,19.7,29.99,North,350,0.0,6.0,65,0.00,,---,0.00,VWS V14.00,2013-03-21 08:55:00,
2013-03-21 05:00:00,29.8,19.5,29.99,SW,227,0.0,6.0,65,0.00,,---,0.00,VWS V14.00,2013-03-21 09:00:00,
2013-03-21 05:05:00,29.7,19.4,29.99,NNW,332,0.0,6.0,65,0.00,,---,0.00,VWS V14.00,2013-03-21 09:05:00,
2013-03-21 05:10:00,29.5,18.5,29.99,West,279,1.0,11.0,63,0.00,,---,0.00,VWS V14.00,2013-03-21 09:10:00,
2013-03-21 05:15:00,29.4,18.0,29.99,West,268,2.0,4.0,62,0.00,,---,0.00,VWS V14.00,2013-03-21 09:15:00,
2013-03-21 05:20:00,29.4,17.6,29.99,NNE,14,2.0,5.0,61,0.00,,---,0.00,VWS V14.00,2013-03-21 09:20:00,
2013-03-21 05:25:00,29.3,17.5,29.99,NW,315,0.0,5.0,61,0.00,,---,0.00,VWS V14.00,2013-03-21 09:25:00,
2013-03-21 05:30:00,29.2,17.1,30.00,NNW,332,1.0,5.0,60,0.00,,---,0.00,VWS V14.00,2013-03-21 09:30:00,
2013-03-21 05:35:00,29.1,17.0,30.00,NW,313,1.0,6.0,60,0.00,,---,0.00,VWS V14.00,2013-03-21 09:35:00,
2013-03-21 05:40:00,29.0,17.2,30.00,NW,313,0.0,6.0,61,0.00,,---,0.00,VWS V14.00,2013-03-21 09:40:00,
2013-03-21 05:45:00,28.9,17.5,30.00,NW,317,0.0,4.0,62,0.00,,---,0.00,VWS V14.00,2013-03-21 09:45:00,
2013-03-21 05:50:00,28.8,17.1,30.00,NW,317,1.0,4.0,61,0.00,,---,0.00,VWS V14.00,2013-03-21 09:50:00,
2013-03-21 05:55:00,28.6,16.9,30.00,SW,223,0.0,2.0,61,0.00,,---,0.00,VWS V14.00,2013-03-21 09:55:00,
2013-03-21 06:00:00,28.5,16.8,30.00,WSW,250,1.0,3.0,61,0.00,,---,0.00,VWS V14.00,2013-03-21 10:00:00,
2013-03-21 06:05:00,28.4,16.7,30.00,WSW,250,0.0,1.0,61,0.00,,---,0.00,VWS V14.00,2013-03-21 10:05:00,
2013-03-21 06:10:00,28.3,16.2,30.00,NNE,21,0.0,7.0,60,0.00,,---,0.00,VWS V14.00,2013-03-21 10:10:00,
2013-03-21 06:20:00,28.1,16.0,30.00,NW,319,0.0,5.0,60,0.00,,---,0.00,VWS V14.00,2013-03-21 10:20:00,
2013-03-21 06:30:00,28.1,15.6,30.00,WNW,292,0.0,7.0,59,0.00,,---,0.00,VWS V14.00,2013-03-21 10:30:00,
2013-03-21 06:40:00,28.0,15.5,30.00,North,5,0.0,4.0,59,0.00,,---,0.00,VWS V14.00,2013-03-21 10:40:00,
2013-03-21 06:50:00,27.7,14.5,30.00,NW,315,0.0,1.0,57,0.00,,---,0.00,VWS V14.00,2013-03-21 10:50:00,
2013-03-21 07:00:00,27.4,15.4,30.00,NNW,333,0.0,1.0,60,0.00,,---,0.00,VWS V14.00,2013-03-21 11:00:00,
2013-03-21 07:10:00,27.0,14.6,30.00,SSW,205,0.0,2.0,59,0.00,,---,0.00,VWS V14.00,2013-03-21 11:10:00,
2013-03-21 07:20:00,26.8,14.4,30.00,North,11,0.0,4.0,59,0.00,,---,0.00,VWS V14.00,2013-03-21 11:20:00,
2013-03-21 07:30:00,26.5,14.1,30.00,North,360,0.0,2.0,59,0.00,,---,0.00,VWS V14.00,2013-03-21 11:30:00,
2013-03-21 07:40:00,26.5,14.5,30.00,NW,304,0.0,4.0,60,0.00,,---,0.00,VWS V14.00,2013-03-21 11:40:00,
2013-03-21 07:50:00,26.5,13.7,30.00,North,355,1.0,3.0,58,0.00,,---,0.00,VWS V14.00,2013-03-21 11:50:00,
2013-03-21 08:00:00,26.3,13.9,30.00,North,355,0.0,1.0,59,0.00,,---,0.00,VWS V14.00,2013-03-21 12:00:00,
2013-03-21 08:10:00,26.1,13.8,30.01,North,355,0.0,1.0,59,0.00,,---,0.00,VWS V14.00,2013-03-21 12:10:00,
2013-03-21 08:20:00,26.0,14.8,30.02,North,355,0.0,0.0,62,0.00,,---,0.00,VWS V14.00,2013-03-21 12:20:00,
2013-03-21 08:30:00,26.2,14.2,30.02,North,355,0.0,1.0,60,0.00,,---,0.00,VWS V14.00,2013-03-21 12:30:00,
2013-03-21 08:40:00,26.9,14.5,30.02,West,272,0.0,4.0,59,0.00,,---,0.00,VWS V14.00,2013-03-21 12:40:00,
2013-03-21 08:50:00,27.8,14.6,30.02,West,270,1.0,5.0,57,0.00,,---,0.00,VWS V14.00,2013-03-21 12:50:00,
2013-03-21 09:00:00,28.6,15.3,30.02,NW,315,1.0,6.0,57,0.00,,---,0.00,VWS V14.00,2013-03-21 13:00:00,
2013-03-21 09:10:00,29.3,16.0,30.03,WNW,292,1.0,7.0,57,0.00,,---,0.00,VWS V14.00,2013-03-21 13:10:00,
2013-03-21 09:20:00,30.0,16.2,30.03,WNW,292,1.0,6.0,56,0.00,,---,0.00,VWS V14.00,2013-03-21 13:20:00,
2013-03-21 09:30:00,30.0,16.2,30.04,West,270,1.0,5.0,56,0.00,,---,0.00,VWS V14.00,2013-03-21 13:30:00,
2013-03-21 09:40:00,30.3,14.8,30.04,NNE,22,2.0,7.0,52,0.00,,---,0.00,VWS V14.00,2013-03-21 13:40:00,
2013-03-21 09:50:00,30.3,13.9,30.04,North,0,2.0,6.0,50,0.00,,---,0.00,VWS V14.00,2013-03-21 13:50:00,
2013-03-21 10:00:00,31.0,14.6,30.04,WNW,292,1.0,5.0,50,0.00,,---,0.00,VWS V14.00,2013-03-21 14:00:00,
2013-03-21 10:10:00,31.5,15.0,30.05,NW,315,1.0,7.0,50,0.00,,---,0.00,VWS V14.00,2013-03-21 14:10:00,
2013-03-21 10:20:00,32.0,15.0,30.05,WSW,248,2.0,7.0,49,0.00,,---,0.00,VWS V14.00,2013-03-21 14:20:00,
2013-03-21 10:30:00,32.3,15.3,30.05,NNE,22,2.0,8.0,49,0.00,,---,0.00,VWS V14.00,2013-03-21 14:30:00,
2013-03-21 10:40:00,32.6,15.1,30.05,WNW,292,1.0,4.0,48,0.00,,---,0.00,VWS V14.00,2013-03-21 14:40:00,
2013-03-21 10:50:00,32.9,14.4,30.05,West,270,2.0,6.0,46,0.00,,---,0.00,VWS V14.00,2013-03-21 14:50:00,
2013-03-21 11:00:00,33.2,13.1,30.06,WSW,248,2.0,6.0,43,0.00,,---,0.00,VWS V14.00,2013-03-21 15:00:00,
2013-03-21 11:10:00,33.6,15.0,30.05,NNE,22,2.0,7.0,46,0.00,,---,0.00,VWS V14.00,2013-03-21 15:10:00,
2013-03-21 11:20:00,33.6,14.5,30.06,NW,315,2.0,8.0,45,0.00,,---,0.00,VWS V14.00,2013-03-21 15:20:00,
2013-03-21 11:30:00,34.2,15.1,30.05,NNE,22,2.0,6.0,45,0.00,,---,0.00,VWS V14.00,2013-03-21 15:30:00,
2013-03-21 11:40:00,34.4,14.2,30.05,NNW,338,2.0,7.0,43,0.00,,---,0.00,VWS V14.00,2013-03-21 15:40:00,
2013-03-21 11:50:00,34.7,12.9,30.05,NW,315,2.0,7.0,40,0.00,,---,0.00,VWS V14.00,2013-03-21 15:50:00,
2013-03-21 12:00:00,34.6,13.9,30.05,NNW,338,2.0,10.0,42,0.00,,---,0.00,VWS V14.00,2013-03-21 16:00:00,
2013-03-21 12:10:00,35.1,14.3,30.05,West,270,2.0,8.0,42,0.00,,---,0.00,VWS V14.00,2013-03-21 16:10:00,
2013-03-21 12:20:00,35.9,15.6,30.05,WSW,248,2.0,8.0,43,0.00,,---,0.00,VWS V14.00,2013-03-21 16:20:00,
2013-03-21 12:30:00,36.5,15.1,30.04,NNW,338,2.0,7.0,41,0.00,,---,0.00,VWS V14.00,2013-03-21 16:30:00,
2013-03-21 12:40:00,37.2,13.3,30.04,NNE,22,3.0,11.0,37,0.00,,---,0.00,VWS V14.00,2013-03-21 16:40:00,
2013-03-21 12:50:00,37.2,13.9,30.04,NW,315,3.0,9.0,38,0.00,,---,0.00,VWS V14.00,2013-03-21 16:50:00,
2013-03-21 13:00:00,37.2,14.5,30.03,North,0,2.0,7.0,39,0.00,,---,0.00,VWS V14.00,2013-03-21 17:00:00,
2013-03-21 13:10:00,37.9,15.2,30.03,West,270,2.0,8.0,39,0.00,,---,0.00,VWS V14.00,2013-03-21 17:10:00,
2013-03-21 13:20:00,38.4,16.2,30.02,ENE,68,1.0,7.0,40,0.00,,---,0.00,VWS V14.00,2013-03-21 17:20:00,
2013-03-21 13:30:00,38.9,16.1,30.02,West,270,2.0,8.0,39,0.00,,---,0.00,VWS V14.00,2013-03-21 17:30:00,
2013-03-21 13:40:00,39.0,14.9,30.01,WSW,248,3.0,9.0,37,0.00,,---,0.00,VWS V14.00,2013-03-21 17:40:00,
2013-03-21 13:50:00,39.2,15.7,30.01,NNE,22,2.0,8.0,38,0.00,,---,0.00,VWS V14.00,2013-03-21 17:50:00,
2013-03-21 14:00:00,40.2,15.4,30.01,WSW,248,2.0,7.0,36,0.00,,---,0.00,VWS V14.00,2013-03-21 18:00:00,
2013-03-21 14:10:00,40.3,15.5,30.00,West,270,2.0,8.0,36,0.00,,---,0.00,VWS V14.00,2013-03-21 18:10:00,
2013-03-21 14:20:00,41.1,17.4,30.00,NNE,22,2.0,7.0,38,0.00,,---,0.00,VWS V14.00,2013-03-21 18:20:00,
2013-03-21 14:30:00,42.1,15.8,30.00,SW,225,3.0,9.0,34,0.00,,---,0.00,VWS V14.00,2013-03-21 18:30:00,
2013-03-21 14:40:00,42.7,18.3,29.99,WSW,248,2.0,10.0,37,0.00,,---,0.00,VWS V14.00,2013-03-21 18:40:00,
2013-03-21 14:50:00,42.9,17.1,29.99,SSE,158,3.0,9.0,35,0.00,,---,0.00,VWS V14.00,2013-03-21 18:50:00,
2013-03-21 15:00:00,43.8,16.6,29.99,WNW,292,2.0,10.0,33,0.00,,---,0.00,VWS V14.00,2013-03-21 19:00:00,
2013-03-21 15:10:00,43.9,16.7,29.99,NNW,338,3.0,7.0,33,0.00,,---,0.00,VWS V14.00,2013-03-21 19:10:00,
2013-03-21 15:20:00,44.9,18.2,29.98,WNW,292,2.0,7.0,34,0.00,,---,0.00,VWS V14.00,2013-03-21 19:20:00,
2013-03-21 15:30:00,45.4,17.3,29.98,WNW,292,1.0,8.0,32,0.00,,---,0.00,VWS V14.00,2013-03-21 19:30:00,
2013-03-21 15:40:00,45.5,18.1,29.98,West,270,3.0,8.0,33,0.00,,---,0.00,VWS V14.00,2013-03-21 19:40:00,
2013-03-21 15:50:00,45.3,17.9,29.97,WNW,292,3.0,8.0,33,0.00,,---,0.00,VWS V14.00,2013-03-21 19:50:00,
2013-03-21 16:00:00,45.6,18.2,29.97,WNW,292,2.0,7.0,33,0.00,,---,0.00,VWS V14.00,2013-03-21 20:00:00,
2013-03-21 16:10:00,46.1,18.6,29.97,WNW,292,2.0,7.0,33,0.00,,---,0.00,VWS V14.00,2013-03-21 20:10:00,
2013-03-21 16:20:00,46.4,17.4,29.97,WNW,292,3.0,9.0,31,0.00,,---,0.00,VWS V14.00,2013-03-21 20:20:00,
2013-03-21 16:30:00,47.2,19.6,29.97,West,270,2.0,8.0,33,0.00,,---,0.00,VWS V14.00,2013-03-21 20:30:00,
2013-03-21 16:40:00,46.8,19.2,29.96,ENE,68,2.0,7.0,33,0.00,,---,0.00,VWS V14.00,2013-03-21 20:40:00,
2013-03-21 16:50:00,46.5,18.2,29.96,NE,45,2.0,7.0,32,0.00,,---,0.00,VWS V14.00,2013-03-21 20:50:00,
2013-03-21 17:00:00,46.8,19.9,29.96,NNE,22,2.0,7.0,34,0.00,,---,0.00,VWS V14.00,2013-03-21 21:00:00,
2013-03-21 17:10:00,47.1,20.2,29.95,ENE,68,1.0,7.0,34,0.00,,---,0.00,VWS V14.00,2013-03-21 21:10:00,
2013-03-21 17:20:00,47.2,20.3,29.95,NW,315,2.0,8.0,34,0.00,,---,0.00,VWS V14.00,2013-03-21 21:20:00,
2013-03-21 17:30:00,47.0,18.7,29.95,West,270,3.0,6.0,32,0.00,,---,0.00,VWS V14.00,2013-03-21 21:30:00,
2013-03-21 17:40:00,47.3,19.0,29.95,NW,315,2.0,9.0,32,0.00,,---,0.00,VWS V14.00,2013-03-21 21:40:00,
2013-03-21 17:50:00,47.4,20.5,29.94,NW,315,1.0,6.0,34,0.00,,---,0.00,VWS V14.00,2013-03-21 21:50:00,
2013-03-21 18:00:00,47.3,19.0,29.94,NW,315,1.0,5.0,32,0.00,,---,0.00,VWS V14.00,2013-03-21 22:00:00,
2013-03-21 18:10:00,47.6,19.9,29.94,WNW,292,0.0,3.0,33,0.00,,---,0.00,VWS V14.00,2013-03-21 22:10:00,
2013-03-21 18:20:00,47.2,18.9,29.94,WNW,292,2.0,7.0,32,0.00,,---,0.00,VWS V14.00,2013-03-21 22:20:00,
2013-03-21 18:30:00,46.7,19.8,29.94,WNW,292,1.0,5.0,34,0.00,,---,0.00,VWS V14.00,2013-03-21 22:30:00,
2013-03-21 18:40:00,45.8,19.7,29.94,NNE,22,1.0,8.0,35,0.00,,---,0.00,VWS V14.00,2013-03-21 22:40:00,
2013-03-21 18:50:00,45.4,19.4,29.94,North,0,1.0,4.0,35,0.00,,---,0.00,VWS V14.00,2013-03-21 22:50:00,
2013-03-21 19:00:00,45.1,19.1,29.94,NE,45,0.0,3.0,35,0.00,,---,0.00,VWS V14.00,2013-03-21 23:00:00,
2013-03-21 19:10:00,44.5,19.9,29.94,NNE,22,0.0,1.0,37,0.00,,---,0.00,VWS V14.00,2013-03-21 23:10:00,
2013-03-21 19:20:00,43.9,18.0,29.94,NE,45,0.0,2.0,35,0.00,,---,0.00,VWS V14.00,2013-03-21 23:20:00,
2013-03-21 19:30:00,43.2,19.3,29.94,NE,45,0.0,3.0,38,0.00,,---,0.00,VWS V14.00,2013-03-21 23:30:00,
2013-03-21 19:40:00,42.3,19.7,29.94,ENE,68,0.0,1.0,40,0.00,,---,0.00,VWS V14.00,2013-03-21 23:40:00,
2013-03-21 19:50:00,41.6,20.2,29.95,ENE,68,0.0,0.0,42,0.00,,---,0.00,VWS V14.00,2013-03-21 23:50:00,
2013-03-21 20:00:00,40.7,20.5,29.95,ENE,68,0.0,0.0,44,0.00,,---,0.00,VWS V14.00,2013-03-22 00:00:00,
2013-03-21 20:10:00,39.7,20.6,29.95,ENE,68,0.0,0.0,46,0.00,,---,0.00,VWS V14.00,2013-03-22 00:10:00,
2013-03-21 20:20:00,38.7,23.1,29.95,ENE,68,0.0,0.0,53,0.00,,---,0.00,VWS V14.00,2013-03-22 00:20:00,
2013-03-21 20:30:00,37.6,22.9,29.95,ENE,68,0.0,1.0,55,0.00,,---,0.00,VWS V14.00,2013-03-22 00:30:00,
2013-03-21 20:40:00,36.7,23.7,29.96,ENE,68,0.0,0.0,59,0.00,,---,0.00,VWS V14.00,2013-03-22 00:40:00,
2013-03-21 20:50:00,36.1,24.4,29.96,ENE,68,0.0,0.0,62,0.00,,---,0.00,VWS V14.00,2013-03-22 00:50:00,
2013-03-21 21:00:00,35.6,23.5,29.97,ENE,68,0.0,0.0,61,0.00,,---,0.00,VWS V14.00,2013-03-22 01:00:00,
2013-03-21 21:10:00,35.1,24.9,29.97,ENE,68,0.0,0.0,66,0.00,,---,0.00,VWS V14.00,2013-03-22 01:10:00,
2013-03-21 21:20:00,34.6,24.4,29.97,ENE,68,0.0,0.0,66,0.00,,---,0.00,VWS V14.00,2013-03-22 01:20:00,
2013-03-21 21:30:00,34.1,23.2,29.97,ENE,68,0.0,0.0,64,0.00,,---,0.00,VWS V14.00,2013-03-22 01:30:00,
2013-03-21 21:40:00,33.5,23.7,29.98,ENE,68,0.0,0.0,67,0.00,,---,0.00,VWS V14.00,2013-03-22 01:40:00,
2013-03-21 21:50:00,33.1,24.4,29.98,ENE,68,0.0,0.0,70,0.00,,---,0.00,VWS V14.00,2013-03-22 01:50:00,
2013-03-21 22:00:00,32.7,25.3,29.98,ENE,68,0.0,0.0,74,0.00,,---,0.00,VWS V14.00,2013-03-22 02:00:00,
2013-03-21 22:10:00,32.1,23.4,29.99,ENE,68,0.0,0.0,70,0.00,,---,0.00,VWS V14.00,2013-03-22 02:10:00,
2013-03-21 22:20:00,31.7,23.7,29.99,ENE,68,0.0,0.0,72,0.00,,---,0.00,VWS V14.00,2013-03-22 02:20:00,
2013-03-21 22:30:00,31.4,24.1,29.99,ENE,68,0.0,0.0,74,0.00,,---,0.00,VWS V14.00,2013-03-22 02:30:00,
2013-03-21 22:40:00,31.1,23.8,29.99,ENE,68,0.0,0.0,74,0.00,,---,0.00,VWS V14.00,2013-03-22 02:40:00,
2013-03-21 22:50:00,30.8,23.5,30.00,ENE,68,0.0,0.0,74,0.00,,---,0.00,VWS V14.00,2013-03-22 02:50:00,
2013-03-21 23:00:00,30.5,23.2,30.00,ENE,68,0.0,0.0,74,0.00,,---,0.00,VWS V14.00,2013-03-22 03:00:00,
2013-03-21 23:10:00,30.4,24.4,30.01,ENE,68,0.0,0.0,78,0.00,,---,0.00,VWS V14.00,2013-03-22 03:10:00,
2013-03-21 23:20:00,30.1,23.5,30.01,ENE,68,0.0,0.0,76,0.00,,---,0.00,VWS V14.00,2013-03-22 03:20:00,
2013-03-21 23:30:00,30.0,23.7,30.01,ENE,68,0.0,0.0,77,0.00,,---,0.00,VWS V14.00,2013-03-22 03:30:00,
2013-03-21 23:40:00,29.9,23.9,30.01,ENE,68,0.0,0.0,78,0.00,,---,0.00,VWS V14.00,2013-03-22 03:40:00,
2013-03-21 23:50:00,29.6,23.6,30.01,ENE,68,0.0,0.0,78,0.00,,---,0.00,VWS V14.00,2013-03-22 03:50:00,